Skip Page Navigation
NASA JPL Caltech
NASA Logo - Jet Propulsion Laboratory + View the NASA Portal
+ Center for Near-Earth Object Studies
JPL Home Earth Solar System Stars & Galaxies Technology
JPL Solar System Dynamics
BODIES ORBITS EPHEMERIDES TOOLS PHYSICAL DATA DISCOVERY FAQ SITE MAP
JPL Small-Body Database Browser
Search: [ help ]  
26062 (2466 T-3)
Classification: Main-belt Asteroid          SPK-ID: 2026062
Ephemeris | Orbit Diagram | Orbital Elements | Mission Design | Physical Parameters | Discovery Circumstances | Close-Approach Data ]

[ show orbit diagram ]
Orbital Elements at Epoch 2459000.5 (2020-May-31.0) TDB
Reference: JPL 34 (heliocentric ecliptic J2000)
 Element Value Uncertainty (1-sigma)   Units 
e .0977011588827241 5.2611e-08  
a 2.976585068841885 1.6934e-08 au
q 2.68576925810302 1.5552e-07 au
i 9.75935791888365 4.6746e-06 deg
node 3.62641725948776 2.1388e-05 deg
peri 357.4386565054419 2.8441e-05 deg
M 126.473723830333 1.9063e-05 deg
tp 2458341.517805303309
(2018-Aug-11.01780530)
9.9133e-05 TDB
period 1875.753974074981
5.14
1.6007e-05
4.382e-08
d
yr
n .1919228240886614 1.6378e-09 deg/d
Q 3.26740087958075 1.8588e-08 au
  Orbit Determination Parameters
   # obs. used (total)      1747  
   data-arc span      15530 days (42.52 yr)  
   first obs. used      1977-10-16  
   last obs. used      2020-04-23  
   planetary ephem.      DE431  
   SB-pert. ephem.      SB431-N16  
   condition code      0  
   norm. resid. RMS      .45155  
   source      ORB  
   producer      Otto Matic  
   solution date      2020-May-20 05:59:33  

Additional Information
 Earth MOID = 1.68286 au 
 Jupiter MOID = 2.18112 au 
 T_jup = 3.232 
[ show covariance matrix ]

Ephemeris | Orbit Diagram | Orbital Elements | Mission Design | Physical Parameters | Discovery Circumstances | Close-Approach Data ]

Physical Parameter Table
Parameter Symbol Value Units Sigma Reference Notes
absolute magnitude H 13.5   n/a MPO337479  

26062 (2466 T-3)          Discovered 1977-Oct-16 by van Houten, C. J., van Houten-Groeneveld, I., Gehrels, T. at Palomar
Reference: 20010606/Numbers.arcLast Updated: 2004-04-19

[ show close-approach data ]
Alternate Designations
 2466 T-3 = 1998 XB31 
Ephemeris | Orbit Diagram | Orbital Elements | Mission Design | Physical Parameters | Discovery Circumstances | Close-Approach Data ]
ABOUT SSD CREDITS/AWARDS PRIVACY/COPYRIGHT GLOSSARY LINKS
FirstGov 2020-Aug-05 14:52 UT
(server date/time)  
NASA Home Page
Site Manager:   Ryan S. Park
Webmaster  Alan B. Chamberlin